Showing default

NAVSTAR 74 (USA 262), 40730

Orbit data source: Space-Track

NAVSTAR 74 (USA 262), 40730 is a payload satellite owned by USAF SMC (US) in MEO that was launched on Wed, 15 Jul 2015 UTC via an ATLAS V 401 launch vehicle from the Air Force Eastern Test Range (AFETR). Payloads include a variety of satellites, spacecraft, and rockets equipped with specific instruments for various scientific and technological missions. These include communications satellites like Starlink; space stations such as the ISS; scientific satellites like the Hubble; Earth observation satellites from companies like Planet Labs, Umbra, and HawkEye 360; GPS; miniature CubeSats for education and research; and military/defense satellites.

Loading next visibility...
NAVSTAR 74 (USA 262) details
Identifier
40730, 2015-033A
Orbit
MEO
Last TLE update14 hours ago
Origin
Flag of USUSAF SMC (US)
ManufacturerBoeing/ES
MissionOperational Defense Navigation
Bus & MotorGPS IIF, AOCS
Mass1,630 kg wet, ~1,500 kg dry
Launch date (UTC)
2015-07-15 (9 years ago)
Launch vehicle
ATLAS V 401
Launch site
Air Force Eastern Test Range (AFETR)
Object type
Payload
Rocket body
Debris
Shape & HBRBox + 2 Pan, 18 m
Radar Cross Section13.960 m², Large (>1 m²)

Expand to show TLE details & history

TLE from 14 hours ago
0 NAVSTAR 74 (USA 262)
1 40730U 15033A   24336.82337056 -.00000035  00000-0  00000-0 0  9997
2 40730  54.4510 290.2046 0099945  20.8145 339.5799  2.00558396 68719
Epoch: 2024-12-01T19:45Z
Definitive object data (Epoch: 2024-12-01T19:45:39.216Z)
Latitude0.00002°
Longitude-77.3887°
Altitude19,934.768 km
Speed3.91 km/s
True Right ascension19h 20m 43s
True Declination0° 00' 00"
Sunlit
Object was in daylight at TLE epoch
Visualization TLE readout
Latitude50.35701°
Longitude-18.00854°
Altitude20,018.424 km
Speed3.9 km/s
Apparent Right ascension22h 34m 04s
Apparent Declination38° 45' 14"
Sunlit
Object is in daylight
Visualization observer readout
Local Sidereal Time07:49:12
Azimuth329.041° NNW
Elevation-2.767°
Doppler factor1
Orbital elements
Apogee altitude20,448.161 km
Perigee altitude19,917.236 km
Semi-major axis26,560.836 km
Eccentricity0.0099945
Inclination54.451°
RAAN290.2046°
Arg. of periapsis20.8145°
True anomaly339.17558°
Mean anomaly339.5799°
Eccentric anomaly339.37822°
Mean motion0.5014 °/min
BSTARUnknown
Orbital period718 mins
Loading maneuver chart data...
Loading historical data...
Loading historical data...
Loading historical data...
Loading historical data...
Loading historical data...
Loading historical data...
Loading historical data...
Other satellites on launch #33 in the year 2015 (2015-07-15 UTC)

NAVSTAR 74 (USA 262) Visibility forecast

Observer location: undefined°, undefined

Span
Click to sort rows by Start time (UTC) header in descending order
Start Az.
Max El. time (UTC)
Max El. Az.
Max El.
End time (UTC)
End Az.
168 mins2024-12-02 10:42:42.630Z322.053° NNW2024-12-02 12:03:42.630Z291.374° WNW21.93°2024-12-02 13:30:42.630Z254.578° W
275 mins2024-12-02 18:48:42.630Z154.955° SSE2024-12-02 21:06:42.630Z90.44° ESE38.628°2024-12-02 23:23:42.630Z45.914° ENE
|